Alexandria, LA

4:31 PM CST on December 08, 2016 (GMT -0600)
Alexandria International

Weather History for KAEX - April, 2013

Change the Weather History Date:

Friday, April 26, 2013

  Actual Average Record
Temperature  
Mean Temperature 64 °F 69 °F  
Max Temperature 77 °F 81 °F 91 °F (1944)
Min Temperature 51 °F 58 °F 35 °F (1910)
Degree Days  
Heating Degree Days 1 1  
Month to date heating degree days 105 64  
Since 1 July heating degree days 1844 1944  
Cooling Degree Days 0 5  
Month to date cooling degree days 66 84  
Year to date cooling degree days 100 137  
Growing Degree Days 13 (Base 50)    
Moisture  
Dew Point 58 °F    
Average Humidity 79    
Maximum Humidity 96    
Minimum Humidity 61    
Precipitation  
Precipitation 0.00 in 0.07 in 2.93 in (1997)
Month to date precipitation 3.18 4.01  
Year to date precipitation 21.02 18.74  
Snow  
Snow 0.00 in - 0.00 in ()
Month to date snowfall 0.0  
Since 1 July snowfall 0.0  
Snow Depth 0.00 in    
Sea Level Pressure  
Sea Level Pressure 30.21 in    
Wind  
Wind Speed 5 mph (SSE)    
Max Wind Speed 14 mph    
Max Gust Speed 17 mph    
Visibility 10 miles    
Events      
T = Trace of Precipitation, MM = Missing Value Source: NWS Daily Summary

Daily Weather History Graph

Daily Weather History Graph

Search for Another Location

Airport or City:

Trip Planner

Search our weather history database for the weather conditions in past years. The results will help you decide how hot, cold, wet, or windy it might be!

Date:

Astronomy

Apr. 26, 2013 Rise Set
Actual Time 6:29 AM CDT 7:46 PM CDT
Civil Twilight 6:04 AM CDT 8:11 PM CDT
Nautical Twilight 5:34 AM CDT 8:42 PM CDT
Astronomical Twilight 5:02 AM CDT 9:13 PM CDT
Moon 9:04 PM CDT (4/26) 7:01 AM CDT (4/26)
Length of Visible Light 14h 07m
Length of Day
13h 16m
Full, 99% of the Moon is Illuminated
Apr 26
Full
May 2
Last Quarter
May 9
New
May 17
First Quarter
May 24
Full

Hourly Weather History & Observations

Time (CDT) Temp. Dew Point Humidity Pressure Visibility Wind Dir Wind Speed Gust Speed Precip Events Conditions
12:53 AM 54.0 °F 48.9 °F 83% 30.27 in 10.0 mi Calm Calm - N/A   Mostly Cloudy
1:53 AM 53.1 °F 48.9 °F 86% 30.25 in 10.0 mi Calm Calm - N/A   Clear
2:53 AM 52.0 °F 50.0 °F 93% 30.22 in 10.0 mi Calm Calm - N/A   Clear
3:53 AM 52.0 °F 50.0 °F 93% 30.21 in 10.0 mi Calm Calm - N/A   Clear
4:53 AM 53.1 °F 50.0 °F 89% 30.21 in 10.0 mi Calm Calm - N/A   Clear
5:53 AM 51.1 °F 48.9 °F 92% 30.23 in 10.0 mi Calm Calm - N/A   Clear
6:53 AM 52.0 °F 50.0 °F 93% 30.24 in 10.0 mi Calm Calm - N/A   Partly Cloudy
7:25 AM 55.4 °F 51.8 °F 88% 30.24 in 10.0 mi ESE 3.5 mph - N/A   Mostly Cloudy
7:53 AM 57.9 °F 51.1 °F 78% 30.25 in 10.0 mi ESE 6.9 mph - N/A   Overcast
8:26 AM 60.8 °F 51.8 °F 72% 30.23 in 10.0 mi SE 8.1 mph - N/A   Scattered Clouds
8:53 AM 63.0 °F 50.0 °F 63% 30.25 in 10.0 mi SE 9.2 mph - N/A   Scattered Clouds
9:24 AM 64.4 °F 51.8 °F 64% 30.24 in 10.0 mi SE 11.5 mph - N/A   Mostly Cloudy
9:53 AM 66.0 °F 53.1 °F 63% 30.25 in 10.0 mi SE 10.4 mph - N/A   Overcast
10:53 AM 69.1 °F 55.0 °F 61% 30.25 in 10.0 mi SSE 10.4 mph - N/A   Overcast
11:53 AM 70.0 °F 57.0 °F 63% 30.25 in 10.0 mi SSE 8.1 mph - N/A   Overcast
12:46 PM 73.4 °F 60.8 °F 65% 30.23 in 10.0 mi Variable 3.5 mph - N/A   Scattered Clouds
12:53 PM 73.9 °F 61.0 °F 64% 30.24 in 10.0 mi SSW 8.1 mph - N/A   Scattered Clouds
1:02 PM 73.4 °F 60.8 °F 65% 30.23 in 10.0 mi SW 8.1 mph - N/A   Mostly Cloudy
1:53 PM 73.0 °F 63.0 °F 71% 30.22 in 10.0 mi Variable 3.5 mph - N/A   Overcast
2:53 PM 75.9 °F 63.0 °F 64% 30.20 in 10.0 mi Calm Calm - N/A   Overcast
3:42 PM 75.2 °F 62.6 °F 65% 30.17 in 10.0 mi Calm Calm - N/A   Overcast
3:53 PM 75.0 °F 63.0 °F 66% 30.18 in 10.0 mi SW 5.8 mph - N/A   Overcast
4:53 PM 75.9 °F 64.0 °F 67% 30.16 in 10.0 mi SSW 3.5 mph - N/A   Overcast
5:53 PM 75.9 °F 64.9 °F 69% 30.16 in 9.0 mi SSW 6.9 mph - N/A   Overcast
6:53 PM 75.0 °F 64.9 °F 71% 30.15 in 9.0 mi South 3.5 mph - N/A   Mostly Cloudy
7:53 PM 72.0 °F 66.0 °F 81% 30.16 in 10.0 mi SE 4.6 mph - N/A   Overcast
8:53 PM 72.0 °F 66.0 °F 81% 30.17 in 10.0 mi South 3.5 mph - N/A   Overcast
9:53 PM 70.0 °F 66.0 °F 87% 30.16 in 10.0 mi South 3.5 mph - N/A   Mostly Cloudy
10:53 PM 70.0 °F 66.0 °F 87% 30.14 in 10.0 mi SSE 6.9 mph - N/A   Scattered Clouds
11:53 PM 70.0 °F 66.9 °F 90% 30.13 in 10.0 mi South 8.1 mph - N/A   Scattered Clouds